Flag for China Weather past 2 weeks in Hangzhou, Zhejiang, China

Now
81 °F

Partly cloudy.


Feels Like: 85 °F
Forecast: 76 / 85 °F
Wind: 13 mph from Northwest

Location: Hangzhou Airport

Current Time: Aug 1, 2014 at 9:43:41 PM

Latest Report: Aug 1, 2014 at 9:00 PM


Visibility: N/A

Pressure: 29.50 "Hg

Humidity: 74%

Dew point: 72 °F

Location of HangzhouLocation

Historic Weather in Hangzhou — Graph

°F

Hangzhou temperature yesterday

Maximum temperature yesterday: 91 °F (at 10:30 AM)
Minimum temperature yesterday: 81 °F (at 9:00 PM)
Average temperature yesterday: 85 °F

Past Weeks' High & Low Weather Summary

 TemperatureHumidityPressure
High99 °F (Jul 22, 1:30 PM)89% (Jul 20, 4:00 AM)29.86 "Hg (Jul 20, 4:00 AM)
Low77 °F (Jul 27, 5:30 PM)34% (Jul 29, 3:00 PM)29.36 "Hg (Jul 24, 5:30 PM)
Average86 °F68%29.69 "Hg
* Reported Jul 17 8:00 PM — Aug 1 8:30 PM, Hangzhou, Weather by CustomWeather, © 2014

Note: Actual official high and low records may vary slightly from our data, if they occured in-between our weather recording intervals... More about our weather records

Advertising

Hangzhou weather history for previous 24 hours

 ConditionsComfort  
Time TempWeatherWind HumidityBarometerVisibility
8:30 PM
Aug 1
81 °FPartly cloudy.10 mph74%29.47 "HgN/A
8:00 PM79 °FPartly cloudy.8 mph84%29.47 "HgN/A
7:30 PM79 °FPartly cloudy.8 mph84%29.47 "Hg5 mi
7:00 PM79 °FPartly cloudy.8 mph84%29.47 "Hg4 mi
6:30 PM79 °FBroken clouds.10 mph84%29.47 "Hg4 mi
6:00 PM79 °FBroken clouds.10 mph84%29.47 "Hg4 mi
5:30 PM79 °FFog.8 mph84%29.47 "Hg3 mi
5:00 PM79 °FSprinkles. Fog.8 mph84%29.47 "Hg3 mi
4:30 PM79 °FSprinkles. Fog.10 mph84%29.47 "Hg2 mi
4:00 PM79 °FSprinkles. Fog.10 mph84%29.47 "Hg2 mi
3:30 PM79 °FRain showers. Fog.10 mph89%29.45 "Hg2 mi
3:00 PM79 °FRain showers. Fog.10 mph84%29.45 "Hg3 mi
2:30 PM79 °FRain showers. Broken clouds.13 mph89%29.45 "Hg4 mi
2:00 PM79 °FSprinkles. Broken clouds.13 mph89%29.47 "Hg4 mi
1:30 PM81 °FSprinkles. Fog.8 mph84%29.47 "Hg3 mi
1:00 PM79 °FRain showers. Fog.8 mph89%29.47 "Hg3 mi
12:30 PM81 °FRain showers. Broken clouds.10 mph84%29.47 "Hg4 mi
12:00 PM81 °FRain showers. Fog.10 mph84%29.50 "Hg3 mi
11:30 AM81 °FRain showers. Fog.10 mph84%29.50 "Hg3 mi
11:00 AM82 °FRain showers. Broken clouds.13 mph79%29.50 "Hg4 mi
10:30 AM82 °FSprinkles. Broken clouds.13 mph79%29.50 "Hg4 mi
10:00 AM82 °FBroken clouds.10 mph74%29.50 "HgN/A
9:30 AM81 °FBroken clouds.8 mph84%29.50 "HgN/A
9:00 AM81 °FBroken clouds.10 mph84%29.50 "HgN/A
8:30 AM79 °FSprinkles. Broken clouds.8 mph89%29.50 "Hg5 mi
8:00 AM81 °FSprinkles. Fog.10 mph79%29.50 "Hg2 mi
7:30 AM81 °FBroken clouds.8 mph79%29.50 "HgN/A
7:00 AM81 °FPartly sunny.8 mph79%29.50 "HgN/A
6:30 AM81 °FScattered clouds.8 mph79%29.50 "HgN/A
6:00 AM79 °FScattered clouds.6 mph84%29.50 "HgN/A
5:30 AM79 °FScattered clouds.6 mph84%29.53 "HgN/A
5:00 AM79 °FPassing clouds.6 mph84%29.50 "HgN/A
4:30 AM79 °FPassing clouds.6 mph84%29.50 "HgN/A
4:00 AM79 °FPassing clouds.6 mph84%29.53 "HgN/A
3:30 AM79 °FPassing clouds.6 mph84%29.53 "HgN/A
3:00 AM79 °FPassing clouds.13 mph84%29.53 "HgN/A
2:30 AM79 °FPassing clouds.10 mph84%29.53 "HgN/A
2:00 AM82 °FPassing clouds.6 mph74%29.53 "HgN/A
1:30 AM82 °FPassing clouds.6 mph74%29.53 "HgN/A
1:00 AM82 °FPassing clouds.8 mph74%29.53 "HgN/A
12:30 AM82 °FPassing clouds.3 mph74%29.56 "HgN/A
12:00 AM82 °FPassing clouds.6 mph74%29.56 "HgN/A
11:30 PM
Jul 31
82 °FPassing clouds.6 mph74%29.56 "HgN/A
11:00 PM82 °FClear.10 mph70%29.59 "Hg10 mi
10:30 PM82 °FPassing clouds.13 mph70%29.59 "HgN/A
10:00 PM82 °FPassing clouds.6 mph74%29.59 "HgN/A
9:30 PM81 °FPassing clouds.6 mph79%29.59 "HgN/A
9:00 PM81 °FSprinkles. Passing clouds.13 mph79%29.59 "HgN/A
Weather by CustomWeather, © 2014

See weather overviewHow to use our weather pages